Menu Close Menu
Station Historical Data
Daily Summary for July 8, 2017 Units:  Metric    English   Both
« Previous Day
Next Day »
Daily Weekly Monthly Yearly Custom
  High: Low: Average:
Temperature: 31.8 °C 21.2 °C 24.9 °C
Dew Point: 23.6 °C 19.9 °C 21.3 °C
Humidity: 95% 56% 82%
Wind Speed: 8.2km/h 0km/h 2.7km/h
Wind Gust: 8.2km/h - -
Wind- - South
Pressure: 1017.2 hPa 1013.8 hPa -
Precipitation: 0 mm    
Historical Graphs
 
 
Tabular Data for July 8, 2017
Time Temperature Dew Point Pressure Wind Wind Speed Wind Gust Humidity Rainfall Rate (Hourly) solar Conditions
00:01 21.9 °C 20.2 °C 1015.1 hPa NNW 1.9 km/h   90% 0 mm WeatherDisplay:10.37 W/m2 SCT
00:06 21.9 °C 20.2 °C 1014.8 hPa NNW 1.9 km/h   90% 0 mm WeatherDisplay:10.37 W/m2 SCT
00:11 21.9 °C 20.2 °C 1014.8 hPa NNW 1.9 km/h 1.9 km/h 90% 0 mm WeatherDisplay:10.37 W/m2 SCT
00:16 21.9 °C 20.2 °C 1014.8 hPa NNW 1.9 km/h   90% 0 mm WeatherDisplay:10.37 W/m2 SCT
00:21 21.9 °C 20.2 °C 1014.8 hPa West 1.9 km/h 1.9 km/h 90% 0 mm WeatherDisplay:10.37 W/m2 SCT
00:26 21.9 °C 20.2 °C 1014.4 hPa West 1.9 km/h 1.9 km/h 90% 0 mm WeatherDisplay:10.37 W/m2 SCT
00:31 22 °C 20.3 °C 1014.8 hPa West 1.9 km/h   90% 0 mm WeatherDisplay:10.37 W/m2 CLR
00:32 22 °C 20.3 °C 1014.8 hPa West 1.9 km/h 1.9 km/h 90% 0 mm WeatherDisplay:10.37 W/m2 CLR
00:37 22.1 °C 20.3 °C 1014.8 hPa WNW 1.9 km/h   90% 0 mm WeatherDisplay:10.37 W/m2 CLR
00:42 22 °C 20.3 °C 1014.8 hPa WNW 1.9 km/h   90% 0 mm WeatherDisplay:10.37 W/m2 CLR
00:47 22 °C 20.3 °C 1014.8 hPa WNW 1.9 km/h   90% 0 mm WeatherDisplay:10.37 W/m2 CLR
00:52 21.9 °C 20.2 °C 1014.8 hPa WNW 1.9 km/h   90% 0 mm WeatherDisplay:10.37 W/m2 CLR
00:58 21.9 °C 20.2 °C 1015.1 hPa WNW 1.9 km/h   90% 0 mm WeatherDisplay:10.37 W/m2 CLR
01:03 21.9 °C 20.2 °C 1014.8 hPa WNW 1.9 km/h   90% 0 mm WeatherDisplay:10.37 W/m2 CLR
01:08 21.8 °C 20.1 °C 1015.1 hPa WNW 1.9 km/h   90% 0 mm WeatherDisplay:10.37 W/m2 CLR
01:13 21.8 °C 20.1 °C 1015.1 hPa WNW 1.9 km/h   90% 0 mm WeatherDisplay:10.37 W/m2 CLR
01:18 21.8 °C 20.2 °C 1015.5 hPa WNW 1.9 km/h   91% 0 mm WeatherDisplay:10.37 W/m2 CLR
01:23 21.8 °C 20.2 °C 1015.5 hPa WNW 1.9 km/h   91% 0 mm WeatherDisplay:10.37 W/m2 CLR
01:28 21.7 °C 20.2 °C 1015.5 hPa WNW 1.9 km/h   91% 0 mm WeatherDisplay:10.37 W/m2 CLR
01:33 21.7 °C 20.2 °C 1015.5 hPa WNW 1.9 km/h   91% 0 mm WeatherDisplay:10.37 W/m2 CLR
01:38 21.7 °C 20.2 °C 1015.5 hPa WNW 1.9 km/h   91% 0 mm WeatherDisplay:10.37 W/m2 CLR
01:43 21.7 °C 20.1 °C 1015.5 hPa WNW 1.9 km/h   91% 0 mm WeatherDisplay:10.37 W/m2 CLR
01:48 21.6 °C 20.1 °C 1015.8 hPa WNW 1.9 km/h   91% 0 mm WeatherDisplay:10.37 W/m2 CLR
01:53 21.6 °C 20.1 °C 1015.5 hPa WNW 1.9 km/h   91% 0 mm WeatherDisplay:10.37 W/m2 CLR
01:58 21.6 °C 20.2 °C 1015.5 hPa WNW 1.9 km/h   92% 0 mm WeatherDisplay:10.37 W/m2 CLR
02:03 21.6 °C 20.2 °C 1015.5 hPa WNW 1.9 km/h   92% 0 mm WeatherDisplay:10.37 W/m2 CLR
02:08 21.5 °C 20.2 °C 1015.5 hPa WNW 1.9 km/h   92% 0 mm WeatherDisplay:10.37 W/m2 CLR
02:13 21.5 °C 20.2 °C 1015.5 hPa WNW 1.9 km/h   92% 0 mm WeatherDisplay:10.37 W/m2 CLR
02:19 21.5 °C 20.2 °C 1015.8 hPa WNW 1.9 km/h   92% 0 mm WeatherDisplay:10.37 W/m2 CLR
02:24 21.5 °C 20.2 °C 1015.8 hPa WNW 1.9 km/h   92% 0 mm WeatherDisplay:10.37 W/m2 CLR
02:29 21.5 °C 20.2 °C 1015.8 hPa WNW 1.9 km/h   92% 0 mm WeatherDisplay:10.37 W/m2 CLR
02:34 21.5 °C 20.2 °C 1015.8 hPa WNW 1.9 km/h   92% 0 mm WeatherDisplay:10.37 W/m2 CLR
02:39 21.6 °C 20.2 °C 1015.8 hPa WNW 1.9 km/h   92% 0 mm WeatherDisplay:10.37 W/m2 CLR
02:44 21.6 °C 20.3 °C 1015.8 hPa WNW 1.9 km/h   92% 0 mm WeatherDisplay:10.37 W/m2 CLR
02:49 21.7 °C 20.3 °C 1015.8 hPa WNW 1.9 km/h   92% 0 mm WeatherDisplay:10.37 W/m2 CLR
02:54 21.7 °C 20.3 °C 1015.8 hPa WNW 1.9 km/h   92% 0 mm WeatherDisplay:10.37 W/m2 CLR
02:59 21.7 °C 20.4 °C 1015.8 hPa WNW 1.9 km/h   92% 0 mm WeatherDisplay:10.37 W/m2 CLR
03:04 21.7 °C 20.4 °C 1015.8 hPa WNW 1.9 km/h   92% 0 mm WeatherDisplay:10.37 W/m2 BKN
03:09 21.7 °C 20.4 °C 1015.8 hPa WNW 1.9 km/h   92% 0 mm WeatherDisplay:10.37 W/m2 BKN
03:14 21.7 °C 20.4 °C 1015.8 hPa WNW 1.9 km/h   92% 0 mm WeatherDisplay:10.37 W/m2 BKN
03:19 21.2 °C 20.3 °C 1015.8 hPa WNW 1.9 km/h   95% 0 mm WeatherDisplay:10.37 W/m2 BKN
03:24 21.2 °C 20.3 °C 1015.8 hPa WNW 1.9 km/h   95% 0 mm WeatherDisplay:10.37 W/m2 BKN
03:29 21.2 °C 20.3 °C 1016.1 hPa NNE 1.9 km/h   95% 0 mm WeatherDisplay:10.37 W/m2 BKN
03:34 21.2 °C 20.3 °C 1016.1 hPa North 1.9 km/h   95% 0 mm WeatherDisplay:10.37 W/m2 SCT
03:40 21.2 °C 20.3 °C 1016.1 hPa North 1.9 km/h   95% 0 mm WeatherDisplay:10.37 W/m2 SCT
03:45 21.2 °C 20.3 °C 1015.8 hPa North 1.9 km/h   95% 0 mm WeatherDisplay:10.37 W/m2 SCT
03:50 21.2 °C 20.3 °C 1016.1 hPa Calm     95% 0 mm WeatherDisplay:10.37 W/m2 SCT
03:55 21.2 °C 20.3 °C 1016.1 hPa North 1.9 km/h   95% 0 mm WeatherDisplay:10.37 W/m2 SCT
04:00 21.2 °C 20.3 °C 1016.1 hPa Calm     95% 0 mm WeatherDisplay:10.37 W/m2 SCT
04:05 21.2 °C 20.3 °C 1016.1 hPa Calm     95% 0 mm WeatherDisplay:10.37 W/m2 SCT
04:10 21.2 °C 20.3 °C 1016.1 hPa North 1.9 km/h   95% 0 mm WeatherDisplay:10.37 W/m2 SCT
04:15 21.2 °C 20.3 °C 1016.1 hPa North 1.9 km/h   95% 0 mm WeatherDisplay:10.37 W/m2 SCT
04:20 21.2 °C 20.3 °C 1016.1 hPa North 1.9 km/h   95% 0 mm WeatherDisplay:10.37 W/m2 BKN
04:25 21.2 °C 20.3 °C 1016.1 hPa North 1.9 km/h   95% 0 mm WeatherDisplay:10.37 W/m2 BKN
04:31 21.2 °C 20.3 °C 1016.1 hPa North 1.9 km/h   95% 0 mm WeatherDisplay:10.37 W/m2 BKN
04:36 21.2 °C 20.3 °C 1016.1 hPa North 1.9 km/h   95% 0 mm WeatherDisplay:10.37 W/m2 BKN
04:41 21.2 °C 20.3 °C 1016.1 hPa North 1.9 km/h   95% 0 mm WeatherDisplay:10.37 W/m2 BKN
04:46 21.2 °C 20.3 °C 1016.1 hPa North 1.9 km/h   95% 0 mm WeatherDisplay:10.37 W/m2 BKN
04:51 21.2 °C 20.3 °C 1016.1 hPa North 1.9 km/h   95% 0 mm WeatherDisplay:10.37 W/m2 SCT
04:56 21.2 °C 20.3 °C 1016.1 hPa North 1.9 km/h   95% 0 mm WeatherDisplay:10.37 W/m2 SCT
05:01 21.2 °C 20.3 °C 1016.1 hPa North 1.9 km/h   95% 0 mm WeatherDisplay:10.37 W/m2 SCT
05:06 21.2 °C 20.3 °C 1016.1 hPa North 1.9 km/h   95% 0 mm WeatherDisplay:10.37 W/m2 SCT
05:11 21.2 °C 20.3 °C 1016.1 hPa North 1.9 km/h   95% 0 mm WeatherDisplay:10.37 W/m2 SCT
05:15 21.2 °C 20.3 °C 1016.1 hPa Calm     95% 0 mm WeatherDisplay:10.37 W/m2 SCT
05:20 21.2 °C 20.3 °C 1016.1 hPa North 1.9 km/h   95% 0 mm WeatherDisplay:10.37 W/m2 SCT
05:25 21.2 °C 20.3 °C 1016.1 hPa Calm     95% 0 mm WeatherDisplay:10.37 W/m2 SCT
05:30 21.2 °C 20.3 °C 1016.1 hPa Calm     95% 0 mm WeatherDisplay:10.37 W/m2 FEW
05:35 21.2 °C 20.3 °C 1015.8 hPa Calm     95% 0 mm WeatherDisplay:10.37 W/m2 FEW
05:40 21.2 °C 20.3 °C 1016.1 hPa Calm     95% 0 mm WeatherDisplay:10.37 W/m2 FEW
05:45 21.2 °C 20.3 °C 1016.1 hPa Calm     95% 0 mm WeatherDisplay:10.37 W/m2 FEW
05:50 21.2 °C 20.3 °C 1016.1 hPa Calm     95% 0 mm WeatherDisplay:10.37 W/m2 FEW
05:55 21.2 °C 20.3 °C 1016.1 hPa Calm     95% 0 mm WeatherDisplay:10.37 W/m2 FEW
06:00 21.2 °C 20.3 °C 1016.1 hPa North 1.9 km/h   95% 0 mm WeatherDisplay:10.37 W/m2 FEW
06:05 21.2 °C 20.3 °C 1016.5 hPa Calm     95% 0 mm WeatherDisplay:10.37 W/m2 FEW
06:10 21.2 °C 20.3 °C 1016.1 hPa Calm     95% 0 mm WeatherDisplay:10.37 W/m2 FEW
06:15 21.2 °C 20.3 °C 1016.5 hPa North 1.9 km/h   95% 0 mm WeatherDisplay:10.37 W/m2 FEW
06:20 21.2 °C 20.3 °C 1016.5 hPa North 1.9 km/h   95% 0 mm WeatherDisplay:10.37 W/m2 FEW
06:25 21.2 °C 20.3 °C 1016.5 hPa Calm     95% 0 mm WeatherDisplay:10.37 W/m2 FEW
06:30 21.2 °C 20.3 °C 1016.8 hPa Calm     95% 0 mm WeatherDisplay:10.37 W/m2 CLR
06:35 21.2 °C 20.3 °C 1017.2 hPa Calm     95% 0 mm WeatherDisplay:10.37 W/m2 CLR
06:40 21.2 °C 20.3 °C 1017.2 hPa Calm     95% 0 mm WeatherDisplay:10.37 W/m2 CLR
06:45 21.2 °C 20.3 °C 1017.2 hPa Calm     95% 0 mm WeatherDisplay:10.37 W/m2 CLR
06:50 21.2 °C 20.3 °C 1017.2 hPa North 1.9 km/h   95% 0 mm WeatherDisplay:10.37 W/m2 CLR
06:55 21.2 °C 20.3 °C 1017.2 hPa Calm     95% 0 mm WeatherDisplay:10.37 W/m2 CLR
07:00 21.2 °C 20.3 °C 1017.2 hPa Calm     95% 0 mm WeatherDisplay:10.37 W/m2 CLR
07:05 21.2 °C 20.3 °C 1016.8 hPa Calm     95% 0 mm WeatherDisplay:10.37 W/m2 CLR
07:10 21.2 °C 20.3 °C 1016.8 hPa Calm     95% 0 mm WeatherDisplay:10.37 W/m2 CLR
07:15 21.2 °C 20.3 °C 1016.8 hPa Calm     95% 0 mm WeatherDisplay:10.37 W/m2 CLR
07:20 21.2 °C 20.3 °C 1016.8 hPa North 1.9 km/h   95% 0 mm WeatherDisplay:10.37 W/m2 CLR
07:25 21.2 °C 20.3 °C 1016.8 hPa Calm     95% 0 mm WeatherDisplay:10.37 W/m2 BKN
07:30 21.2 °C 20.3 °C 1016.8 hPa Calm     95% 0 mm WeatherDisplay:10.37 W/m2 BKN
07:35 21.2 °C 20.3 °C 1016.8 hPa Calm     95% 0 mm WeatherDisplay:10.37 W/m2 BKN
07:40 21.2 °C 20.3 °C 1016.8 hPa Calm     95% 0 mm WeatherDisplay:10.37 W/m2 BKN
07:45 21.2 °C 20.3 °C 1016.8 hPa North 1.9 km/h   95% 0 mm WeatherDisplay:10.37 W/m2 BKN
07:50 21.2 °C 20.3 °C 1016.8 hPa Calm     95% 0 mm WeatherDisplay:10.37 W/m2 SCT
07:55 21.2 °C 20.3 °C 1016.8 hPa Calm     95% 0 mm WeatherDisplay:10.37 W/m2 SCT
08:00 21.2 °C 20.3 °C 1016.8 hPa North 1.9 km/h   95% 0 mm WeatherDisplay:10.37 W/m2 SCT
08:05 21.2 °C 20.3 °C 1016.8 hPa Calm     95% 0 mm WeatherDisplay:10.37 W/m2 SCT
08:10 21.2 °C 20.3 °C 1016.8 hPa Calm     95% 0 mm WeatherDisplay:10.37 W/m2 SCT
08:15 22.4 °C 21.1 °C 1016.8 hPa WNW 1.9 km/h   92% 0 mm WeatherDisplay:10.37 W/m2 SCT
08:20 22.6 °C 21 °C 1016.8 hPa WNW 1.9 km/h 1.9 km/h 91% 0 mm WeatherDisplay:10.37 W/m2 SCT
08:25 22.7 °C 20.9 °C 1016.8 hPa WNW 1.9 km/h 1.9 km/h 90% 0 mm WeatherDisplay:10.37 W/m2 SCT
08:30 22.8 °C 21.1 °C 1016.8 hPa SW 3.7 km/h   90% 0 mm WeatherDisplay:10.37 W/m2 SCT
08:35 22.9 °C 21.2 °C 1016.5 hPa SW 3.7 km/h   90% 0 mm WeatherDisplay:10.37 W/m2 SCT
08:40 23.1 °C 21.4 °C 1016.5 hPa SW 3.7 km/h   90% 0 mm WeatherDisplay:10.37 W/m2 SCT
08:45 23.3 °C 21.6 °C 1016.5 hPa SW 3.7 km/h   90% 0 mm WeatherDisplay:10.37 W/m2 SCT
08:50 23.4 °C 21.4 °C 1016.5 hPa SW 3.7 km/h 3.7 km/h 89% 0 mm WeatherDisplay:10.37 W/m2 SCT
08:55 23.6 °C 21.7 °C 1016.5 hPa WNW 3.7 km/h   89% 0 mm WeatherDisplay:10.37 W/m2 SCT
09:00 23.9 °C 21.9 °C 1016.5 hPa NW 3.7 km/h   89% 0 mm WeatherDisplay:10.37 W/m2 SCT
09:06 24.1 °C 22 °C 1016.1 hPa NW 3.7 km/h   88% 0 mm WeatherDisplay:10.37 W/m2 SCT
09:11 24.3 °C 22 °C 1016.1 hPa NW 3.7 km/h   87% 0 mm WeatherDisplay:10.37 W/m2 SCT
09:16 24.4 °C 22.1 °C 1016.5 hPa NW 3.7 km/h 3.7 km/h 87% 0 mm WeatherDisplay:10.37 W/m2 SCT
09:21 24.7 °C 22.4 °C 1016.5 hPa NW 3.7 km/h 3.7 km/h 87% 0 mm WeatherDisplay:10.37 W/m2 SCT
09:26 24.9 °C 22.6 °C 1016.5 hPa NW 3.7 km/h   87% 0 mm WeatherDisplay:10.37 W/m2 SCT
09:31 25.2 °C 22.7 °C 1016.5 hPa NW 3.7 km/h   86% 0 mm WeatherDisplay:10.37 W/m2 SCT
09:36 25.3 °C 22.6 °C 1016.5 hPa NW 3.7 km/h   85% 0 mm WeatherDisplay:10.37 W/m2 SCT
09:41 25.3 °C 22.4 °C 1016.5 hPa NW 3.7 km/h   84% 0 mm WeatherDisplay:10.37 W/m2 SCT
09:46 25.4 °C 22.7 °C 1016.5 hPa NW 3.7 km/h   85% 0 mm WeatherDisplay:10.37 W/m2 SCT
09:51 25.4 °C 22.7 °C 1016.5 hPa NW 3.7 km/h   85% 0 mm WeatherDisplay:10.37 W/m2 SCT
09:56 25.4 °C 22.7 °C 1016.5 hPa NW 3.7 km/h 3.7 km/h 85% 0 mm WeatherDisplay:10.37 W/m2 SCT
10:01 25.5 °C 22.8 °C 1016.5 hPa SW 3.7 km/h   85% 0 mm WeatherDisplay:10.37 W/m2 SCT
10:06 25.6 °C 22.7 °C 1016.5 hPa WSW 3.7 km/h   84% 0 mm WeatherDisplay:10.37 W/m2 SCT
10:11 25.7 °C 22.8 °C 1016.5 hPa WSW 3.7 km/h   84% 0 mm WeatherDisplay:10.37 W/m2 SCT
10:16 26.2 °C 23.2 °C 1016.5 hPa West 3.7 km/h   84% 0 mm WeatherDisplay:10.37 W/m2 SCT
10:20 29.1 °C 22.6 °C 1014.1 hPa Calm   1.6 km/h 68% 0 mm WeatherDisplay:10.37 W/m2
10:22 26.6 °C 23.3 °C 1016.1 hPa West 3.7 km/h   82% 0 mm WeatherDisplay:10.37 W/m2 BKN
10:25 29.1 °C 22.8 °C 1013.8 hPa Calm   1.6 km/h 69% 0 mm WeatherDisplay:10.37 W/m2
10:26 26.9 °C 23.2 °C 1016.5 hPa NW 3.7 km/h   80% 0 mm WeatherDisplay:10.37 W/m2 BKN
10:30 29 °C 22.7 °C 1014.1 hPa Calm   1.6 km/h 69% 0 mm WeatherDisplay:10.37 W/m2
10:32 27.2 °C 23.4 °C 1016.5 hPa NW 3.7 km/h   80% 0 mm WeatherDisplay:10.37 W/m2 BKN
10:35 28.7 °C 21.2 °C 1014.1 hPa WNW 1.6 km/h 3.2 km/h 64% 0 mm WeatherDisplay:10.37 W/m2
10:37 27.5 °C 23.6 °C 1016.5 hPa WSW 3.7 km/h   79% 0 mm WeatherDisplay:10.37 W/m2 BKN
10:40 27.9 °C 21 °C 1014.4 hPa NW 1.6 km/h 3.2 km/h 66% 0 mm WeatherDisplay:10.37 W/m2
10:42 27.7 °C 23.3 °C 1016.5 hPa SW 3.7 km/h 3.7 km/h 77% 0 mm WeatherDisplay:10.37 W/m2 BKN
10:45 27.2 °C 21.1 °C 1014.4 hPa Calm   4.8 km/h 69% 0 mm WeatherDisplay:10.37 W/m2
10:47 27.7 °C 22.8 °C 1016.5 hPa SSW 5.6 km/h 5.6 km/h 75% 0 mm WeatherDisplay:10.37 W/m2 BKN
10:50 26.8 °C 21.1 °C 1014.4 hPa Calm     71% 0 mm WeatherDisplay:10.37 W/m2
10:52 27.6 °C 23.2 °C 1016.5 hPa SSE 5.6 km/h   77% 0 mm WeatherDisplay:10.37 W/m2 BKN
10:55 26.3 °C 21.1 °C 1014.8 hPa Calm     73% 0 mm WeatherDisplay:10.37 W/m2
10:57 27.7 °C 23.1 °C 1016.5 hPa WSW 5.6 km/h 5.6 km/h 76% 0 mm WeatherDisplay:10.37 W/m2 BKN
11:00 26.1 °C 21.1 °C 1015.1 hPa Calm     74% 0 mm WeatherDisplay:10.37 W/m2
11:02 27.7 °C 23.1 °C 1016.5 hPa SW 5.6 km/h 5.6 km/h 76% 0 mm WeatherDisplay:10.37 W/m2 BKN
11:05 25.8 °C 21 °C 1015.1 hPa Calm     75% 0 mm WeatherDisplay:10.37 W/m2
11:07 27.8 °C 23 °C 1016.5 hPa SSW 5.6 km/h 5.6 km/h 75% 0 mm WeatherDisplay:10.37 W/m2 BKN
11:10 25.6 °C 21.3 °C 1015.1 hPa Calm     77% 0 mm WeatherDisplay:10.37 W/m2
11:12 28.1 °C 23.4 °C 1016.5 hPa SSW 5.6 km/h 5.6 km/h 76% 0 mm WeatherDisplay:10.37 W/m2 BKN
11:15 25.5 °C 21.4 °C 1015.1 hPa Calm     78% 0 mm WeatherDisplay:10.37 W/m2
11:17 28.2 °C 23.1 °C 1016.5 hPa SSW 5.6 km/h   74% 0 mm WeatherDisplay:10.37 W/m2 BKN
11:20 25.4 °C 21.5 °C 1015.1 hPa Calm     79% 0 mm WeatherDisplay:10.37 W/m2
11:22 28.3 °C 23.3 °C 1016.5 hPa East 5.6 km/h 5.6 km/h 74% 0 mm WeatherDisplay:10.37 W/m2 BKN
11:25 25.2 °C 21.4 °C 1015.1 hPa Calm     80% 0 mm WeatherDisplay:10.37 W/m2
11:27 28.3 °C 22.7 °C 1016.5 hPa SW 5.6 km/h   72% 0 mm WeatherDisplay:10.37 W/m2 BKN
11:30 25.1 °C 21.4 °C 1015.5 hPa Calm     80% 0 mm WeatherDisplay:10.37 W/m2
11:32 28.3 °C 22.6 °C 1016.5 hPa SW 5.6 km/h 5.6 km/h 71% 0 mm WeatherDisplay:10.37 W/m2 BKN
11:35 25 °C 20.9 °C 1015.1 hPa Calm     78% 0 mm WeatherDisplay:10.37 W/m2
11:37 28.4 °C 23.1 °C 1016.5 hPa WSW 5.6 km/h   73% 0 mm WeatherDisplay:10.37 W/m2 BKN
11:40 24.9 °C 20.4 °C 1015.1 hPa Calm     76% 0 mm WeatherDisplay:10.37 W/m2
11:43 28.6 °C 23.1 °C 1016.5 hPa WSW 5.6 km/h   72% 0 mm WeatherDisplay:10.37 W/m2 BKN
11:45 24.9 °C 20.2 °C 1015.1 hPa Calm     75% 0 mm WeatherDisplay:10.37 W/m2
11:48 28.8 °C 23.3 °C 1016.5 hPa NW 5.6 km/h   72% 0 mm WeatherDisplay:10.37 W/m2 BKN
11:50 24.9 °C 20.2 °C 1015.1 hPa Calm     75% 0 mm WeatherDisplay:10.37 W/m2
11:53 28.9 °C 23.4 °C 1016.5 hPa North 5.6 km/h   72% 0 mm WeatherDisplay:10.37 W/m2 BKN
11:55 24.8 °C 19.9 °C 1015.5 hPa Calm     74% 0 mm WeatherDisplay:10.37 W/m2
11:58 28.9 °C 22.9 °C 1016.5 hPa SW 5.6 km/h   70% 0 mm WeatherDisplay:10.37 W/m2 BKN
12:00 24.8 °C 20.4 °C 1015.5 hPa Calm     77% 0 mm WeatherDisplay:10.37 W/m2
12:03 28.8 °C 22.3 °C 1016.5 hPa SSW 5.6 km/h 5.6 km/h 68% 0 mm WeatherDisplay:10.37 W/m2 BKN
12:05 24.6 °C 20.7 °C 1015.5 hPa Calm     79% 0 mm WeatherDisplay:10.37 W/m2
12:08 28.8 °C 22.8 °C 1016.5 hPa West 5.6 km/h   70% 0 mm WeatherDisplay:10.37 W/m2 BKN
12:10 24.1 °C 20.4 °C 1015.5 hPa Calm     80% 0 mm WeatherDisplay:10.37 W/m2
12:13 28.8 °C 22.8 °C 1016.5 hPa WNW 5.6 km/h   70% 0 mm WeatherDisplay:10.37 W/m2 BKN
12:15 23.8 °C 20.5 °C 1015.8 hPa Calm     82% 0 mm WeatherDisplay:10.37 W/m2
12:18 28.9 °C 23.3 °C 1016.1 hPa WNW 5.6 km/h   72% 0 mm WeatherDisplay:10.37 W/m2 BKN
12:20 23.4 °C 20.6 °C 1015.8 hPa Calm     84% 0 mm WeatherDisplay:10.37 W/m2
12:23 29.2 °C 23.1 °C 1016.1 hPa WNW 5.6 km/h   70% 0 mm WeatherDisplay:10.37 W/m2 BKN
12:28 29.5 °C 23.2 °C 1016.1 hPa NW 5.6 km/h   69% 0 mm WeatherDisplay:10.37 W/m2 BKN
12:33 29.6 °C 23.1 °C 1016.1 hPa NNW 5.6 km/h   68% 0 mm WeatherDisplay:10.37 W/m2 BKN
12:38 29.6 °C 21.8 °C 1016.1 hPa ENE 5.6 km/h 5.6 km/h 63% 0 mm WeatherDisplay:10.37 W/m2 BKN
12:43 29.7 °C 23.2 °C 1016.1 hPa ENE 5.6 km/h 5.6 km/h 68% 0 mm WeatherDisplay:10.37 W/m2 BKN
12:49 29.9 °C 22.9 °C 1015.8 hPa South 5.6 km/h   66% 0 mm WeatherDisplay:10.37 W/m2 BKN
12:54 30.3 °C 22.8 °C 1015.8 hPa South 5.6 km/h   64% 0 mm WeatherDisplay:10.37 W/m2 BKN
12:59 30.7 °C 23.1 °C 1015.8 hPa SW 5.6 km/h 5.6 km/h 64% 0 mm WeatherDisplay:10.37 W/m2 BKN
13:04 30.8 °C 23.2 °C 1015.8 hPa East 5.6 km/h   64% 0 mm WeatherDisplay:10.37 W/m2 BKN
13:09 30.9 °C 22.2 °C 1015.8 hPa East 5.6 km/h   60% 0 mm WeatherDisplay:10.37 W/m2 BKN
13:14 31.2 °C 22.8 °C 1015.8 hPa ENE 5.6 km/h   61% 0 mm WeatherDisplay:10.37 W/m2 BKN
13:19 31.4 °C 22.4 °C 1015.8 hPa NNW 5.6 km/h   59% 0 mm WeatherDisplay:10.37 W/m2 BKN
13:24 31.7 °C 22.4 °C 1015.8 hPa SW 5.6 km/h   58% 0 mm WeatherDisplay:10.37 W/m2 BKN
13:29 31.3 °C 22.3 °C 1015.8 hPa NW 5.6 km/h   59% 0 mm WeatherDisplay:10.37 W/m2 BKN
13:34 30.9 °C 22.6 °C 1015.8 hPa North 5.6 km/h   61% 0 mm WeatherDisplay:10.37 W/m2 BKN
13:39 31 °C 23.4 °C 1015.8 hPa NNE 5.6 km/h 5.6 km/h 64% 0 mm WeatherDisplay:10.37 W/m2 BKN
13:44 31.3 °C 22.6 °C 1015.5 hPa NNE 5.6 km/h   60% 0 mm WeatherDisplay:10.37 W/m2 BKN
13:49 31.4 °C 23.3 °C 1015.5 hPa WNW 5.6 km/h 5.6 km/h 62% 0 mm WeatherDisplay:10.37 W/m2 BKN
13:54 31.6 °C 22.6 °C 1015.5 hPa WNW 5.6 km/h 5.6 km/h 59% 0 mm WeatherDisplay:10.37 W/m2 BKN
13:59 31.7 °C 22.4 °C 1015.5 hPa WNW 5.6 km/h   58% 0 mm WeatherDisplay:10.37 W/m2 BKN
14:04 31.8 °C 22.5 °C 1015.5 hPa West 5.6 km/h   58% 0 mm WeatherDisplay:10.37 W/m2 BKN
14:09 31.8 °C 22.8 °C 1015.1 hPa West 5.6 km/h 5.6 km/h 59% 0 mm WeatherDisplay:10.37 W/m2 BKN
14:15 31.7 °C 22.4 °C 1015.1 hPa WNW 5.6 km/h   58% 0 mm WeatherDisplay:10.37 W/m2 BKN
14:19 31.3 °C 22.9 °C 1015.1 hPa WNW 5.6 km/h   61% 0 mm WeatherDisplay:10.37 W/m2 BKN
14:25 31.1 °C 22.7 °C 1015.1 hPa WNW 5.6 km/h   61% 0 mm WeatherDisplay:10.37 W/m2 BKN
14:30 31.1 °C 23.4 °C 1014.8 hPa WNW 5.6 km/h   64% 0 mm WeatherDisplay:10.37 W/m2 BKN
14:35 31 °C 22.1 °C 1014.8 hPa NW 5.6 km/h   59% 0 mm WeatherDisplay:10.37 W/m2 BKN
14:40 31.1 °C 22.9 °C 1014.8 hPa Calm   1.6 km/h 62% 0 mm WeatherDisplay:10.37 W/m2 BKN
14:45 31.1 °C 21.8 °C 1014.8 hPa Calm   3.2 km/h 58% 0 mm WeatherDisplay:10.37 W/m2 BKN
14:50 30.8 °C 22.7 °C 1014.8 hPa Calm   3.2 km/h 62% 0 mm WeatherDisplay:10.37 W/m2 BKN
14:55 30.8 °C 22.9 °C 1014.8 hPa Calm   3.2 km/h 63% 0 mm WeatherDisplay:10.37 W/m2 BKN
15:00 30.8 °C 22.4 °C 1014.8 hPa Calm   3.2 km/h 61% 0 mm WeatherDisplay:10.37 W/m2 BKN
15:05 30.8 °C 22.7 °C 1014.8 hPa Calm     62% 0 mm WeatherDisplay:10.37 W/m2 BKN
15:10 30.9 °C 22.2 °C 1014.8 hPa Calm   4.8 km/h 60% 0 mm WeatherDisplay:10.37 W/m2 BKN
15:15 30.8 °C 21.3 °C 1014.4 hPa Calm   4.8 km/h 57% 0 mm WeatherDisplay:10.37 W/m2 BKN
15:20 30.8 °C 22.1 °C 1014.4 hPa Calm   3.2 km/h 60% 0 mm WeatherDisplay:10.37 W/m2 BKN
15:25 30.7 °C 20.9 °C 1014.4 hPa SW 1.6 km/h 3.2 km/h 56% 0 mm WeatherDisplay:10.37 W/m2 BKN
15:30 30.7 °C 21.2 °C 1014.8 hPa Calm   8 km/h 57% 0 mm WeatherDisplay:10.37 W/m2 BKN
15:35 30.5 °C 21.6 °C 1014.8 hPa Calm   1.6 km/h 59% 0 mm WeatherDisplay:10.37 W/m2 BKN
15:40 30.3 °C 22.2 °C 1014.8 hPa Calm   4.8 km/h 62% 0 mm WeatherDisplay:10.37 W/m2 BKN
15:45 30.4 °C 22.6 °C 1014.8 hPa WNW 1.6 km/h 8 km/h 63% 0 mm WeatherDisplay:10.37 W/m2 BKN
15:50 30.3 °C 22.2 °C 1014.4 hPa WSW 8.2 km/h 8.2 km/h 62% 0 mm WeatherDisplay:10.37 W/m2 BKN
15:55 30.2 °C 22.4 °C 1014.8 hPa Calm   8 km/h 63% 0 mm WeatherDisplay:10.37 W/m2 BKN
16:00 30.2 °C 22.7 °C 1014.8 hPa Calm   3.2 km/h 64% 0 mm WeatherDisplay:10.37 W/m2 BKN
16:05 30.2 °C 23.2 °C 1014.8 hPa Calm   1.6 km/h 66% 0 mm WeatherDisplay:10.37 W/m2 BKN
16:10 30.2 °C 23.1 °C 1014.8 hPa Calm   1.6 km/h 66% 0 mm WeatherDisplay:10.37 W/m2 BKN
16:15 30.1 °C 23.3 °C 1014.8 hPa Calm   3.2 km/h 67% 0 mm WeatherDisplay:10.37 W/m2 BKN
16:20 30.1 °C 22.8 °C 1014.4 hPa SW 8.2 km/h   65% 0 mm WeatherDisplay:10.37 W/m2 BKN
16:25 30.2 °C 22.8 °C 1014.4 hPa Calm   1.6 km/h 65% 0 mm WeatherDisplay:10.37 W/m2 BKN
16:30 30.2 °C 23.4 °C 1014.8 hPa West 1.6 km/h 1.6 km/h 67% 0 mm WeatherDisplay:10.37 W/m2 BKN
16:35 30.2 °C 22.8 °C 1014.4 hPa Calm   1.6 km/h 65% 0 mm WeatherDisplay:10.37 W/m2 BKN
16:40 30.1 °C 22.8 °C 1014.4 hPa Calm   1.6 km/h 65% 0 mm WeatherDisplay:10.37 W/m2 BKN
16:45 29.9 °C 22.7 °C 1014.4 hPa Calm   4.8 km/h 65% 0 mm WeatherDisplay:10.37 W/m2 BKN
16:50 29.8 °C 22.6 °C 1014.4 hPa West 8.2 km/h 8.2 km/h 65% 0 mm WeatherDisplay:10.37 W/m2 BKN
16:55 29.8 °C 22.6 °C 1014.4 hPa Calm   3.2 km/h 65% 0 mm WeatherDisplay:10.37 W/m2 BKN
17:00 29.8 °C 21.9 °C 1014.4 hPa Calm   1.6 km/h 63% 0 mm WeatherDisplay:10.37 W/m2 BKN
17:05 29.7 °C 21.9 °C 1014.4 hPa Calm   1.6 km/h 63% 0 mm WeatherDisplay:10.37 W/m2 BKN
17:10 29.6 °C 21.8 °C 1014.1 hPa Calm   3.2 km/h 63% 0 mm WeatherDisplay:10.37 W/m2 BKN
17:15 29.4 °C 21.7 °C 1014.1 hPa Calm     63% 0 mm WeatherDisplay:10.37 W/m2 BKN
17:20 29.4 °C 21.4 °C 1014.1 hPa Calm     62% 0 mm WeatherDisplay:10.37 W/m2 BKN
17:25 29.6 °C 22 °C 1014.1 hPa Calm     64% 0 mm WeatherDisplay:10.37 W/m2 BKN
17:30 29.6 °C 22.3 °C 1014.1 hPa NW 8.2 km/h   65% 0 mm WeatherDisplay:10.37 W/m2 BKN
17:35 29.7 °C 22.4 °C 1014.1 hPa WNW 8.2 km/h   65% 0 mm WeatherDisplay:10.37 W/m2 BKN
17:40 29.7 °C 22.4 °C 1014.1 hPa WNW 8.2 km/h 8.2 km/h 65% 0 mm WeatherDisplay:10.37 W/m2 BKN
17:45 29.6 °C 22.1 °C 1014.1 hPa Calm   1.6 km/h 64% 0 mm WeatherDisplay:10.37 W/m2 BKN
17:51 29.6 °C 22 °C 1013.8 hPa SW 3.7 km/h 3.7 km/h 64% 0 mm WeatherDisplay:10.37 W/m2 BKN
17:57 29.4 °C 22.2 °C 1014.1 hPa WNW 5.6 km/h   65% 0 mm WeatherDisplay:10.37 W/m2 BKN
18:02 29.4 °C 22.1 °C 1014.1 hPa SW 5.6 km/h 5.6 km/h 65% 0 mm WeatherDisplay:10.37 W/m2 BKN
18:07 29.3 °C 22 °C 1014.1 hPa WSW 5.6 km/h 5.6 km/h 65% 0 mm WeatherDisplay:10.37 W/m2 BKN
18:12 29.3 °C 22.3 °C 1014.1 hPa West 5.6 km/h 5.6 km/h 66% 0 mm WeatherDisplay:10.37 W/m2 BKN
20:23 23.2 °C 20.6 °C 1015.8 hPa WNW 5 km/h   85% 0 mm WeatherDisplay:10.37 W/m2 CLR
20:28 23 °C 20.6 °C 1015.8 hPa WNW 5 km/h   86% 0 mm WeatherDisplay:10.37 W/m2 BKN
20:34 22.8 °C 20.5 °C 1015.8 hPa WNW 5 km/h   87% 0 mm WeatherDisplay:10.37 W/m2 BKN
20:39 22.6 °C 20.5 °C 1015.5 hPa WNW 5 km/h   88% 0 mm WeatherDisplay:10.37 W/m2 BKN
20:44 22.5 °C 20.4 °C 1015.1 hPa WNW 5 km/h   88% 0 mm WeatherDisplay:10.37 W/m2 BKN
20:49 22.4 °C 20.6 °C 1015.1 hPa NW 5 km/h   89% 0 mm WeatherDisplay:10.37 W/m2 BKN
20:54 22.2 °C 20.1 °C 1015.1 hPa NE 5 km/h   88% 0 mm WeatherDisplay:10.37 W/m2 OVC
20:59 22.1 °C 20.2 °C 1014.8 hPa NE 5 km/h   89% 0 mm WeatherDisplay:10.37 W/m2 OVC
21:04 22.1 °C 20.2 °C 1014.8 hPa NE 5 km/h   89% 0 mm WeatherDisplay:10.37 W/m2 OVC
21:09 21.9 °C 20.2 °C 1015.1 hPa NE 5 km/h   90% 0 mm WeatherDisplay:10.37 W/m2 OVC
21:14 21.9 °C 20.2 °C 1015.1 hPa NE 5 km/h   90% 0 mm WeatherDisplay:10.37 W/m2 OVC
21:19 21.9 °C 20.2 °C 1015.1 hPa NE 5 km/h   90% 0 mm WeatherDisplay:10.37 W/m2 OVC
21:24 21.9 °C 20.3 °C 1015.1 hPa NE 5 km/h   91% 0 mm WeatherDisplay:10.37 W/m2 OVC
21:29 21.9 °C 20.3 °C 1015.5 hPa NE 5 km/h   91% 0 mm WeatherDisplay:10.37 W/m2 OVC
21:34 21.9 °C 20.4 °C 1015.5 hPa NE 5 km/h   91% 0 mm WeatherDisplay:10.37 W/m2 OVC
21:39 21.9 °C 20.3 °C 1015.8 hPa NE 5 km/h   91% 0 mm WeatherDisplay:10.37 W/m2 OVC
21:44 21.8 °C 20.3 °C 1015.8 hPa NE 5 km/h   91% 0 mm WeatherDisplay:10.37 W/m2 OVC
21:49 21.8 °C 20.2 °C 1015.8 hPa NE 5 km/h   91% 0 mm WeatherDisplay:10.37 W/m2 OVC
21:54 21.8 °C 20.5 °C 1015.8 hPa NE 5 km/h   92% 0 mm WeatherDisplay:10.37 W/m2 OVC
21:59 21.8 °C 20.3 °C 1015.8 hPa NE 5 km/h   91% 0 mm WeatherDisplay:10.37 W/m2 OVC
22:04 21.8 °C 20.4 °C 1015.8 hPa NE 5 km/h   92% 0 mm WeatherDisplay:10.37 W/m2 OVC
22:10 21.8 °C 20.4 °C 1015.8 hPa NE 5 km/h   92% 0 mm WeatherDisplay:10.37 W/m2 OVC
22:15 21.7 °C 20.4 °C 1015.8 hPa NE 5 km/h   92% 0 mm WeatherDisplay:10.37 W/m2 OVC
22:20 21.8 °C 20.4 °C 1015.8 hPa NE 5 km/h   92% 0 mm WeatherDisplay:10.37 W/m2 OVC
22:25 21.8 °C 20.4 °C 1015.8 hPa NE 5 km/h   92% 0 mm WeatherDisplay:10.37 W/m2 BKN
22:30 21.8 °C 20.4 °C 1015.8 hPa NE 5 km/h   92% 0 mm WeatherDisplay:10.37 W/m2 BKN
22:35 21.7 °C 20.4 °C 1016.1 hPa NE 5 km/h   92% 0 mm WeatherDisplay:10.37 W/m2 BKN
22:40 21.6 °C 20.3 °C 1016.1 hPa NE 5 km/h   92% 0 mm WeatherDisplay:10.37 W/m2 BKN
22:45 21.6 °C 20.2 °C 1016.1 hPa NE 5 km/h   92% 0 mm WeatherDisplay:10.37 W/m2 BKN
22:50 21.6 °C 20.2 °C 1016.5 hPa NE 5 km/h   92% 0 mm WeatherDisplay:10.37 W/m2 BKN
22:55 21.5 °C 20.2 °C 1016.5 hPa NE 5 km/h   92% 0 mm WeatherDisplay:10.37 W/m2 BKN
23:00 21.5 °C 20.2 °C 1016.1 hPa NE 5 km/h   92% 0 mm WeatherDisplay:10.37 W/m2 BKN
23:05 21.5 °C 20.2 °C 1016.5 hPa NE 5 km/h   92% 0 mm WeatherDisplay:10.37 W/m2 BKN
23:10 21.5 °C 20.2 °C 1016.5 hPa NE 5 km/h   92% 0 mm WeatherDisplay:10.37 W/m2 BKN
23:15 21.5 °C 20.2 °C 1016.5 hPa NE 5 km/h   92% 0 mm WeatherDisplay:10.37 W/m2 BKN
23:20 21.4 °C 20.1 °C 1016.5 hPa NE 5 km/h   92% 0 mm WeatherDisplay:10.37 W/m2 SCT
23:21 21.4 °C 20.1 °C 1016.5 hPa NE 5 km/h   92% 0 mm WeatherDisplay:10.37 W/m2 SCT
23:26 21.4 °C 20.1 °C 1016.5 hPa NE 5 km/h   92% 0 mm WeatherDisplay:10.37 W/m2 SCT
23:31 21.4 °C 20.1 °C 1016.5 hPa NE 5 km/h   92% 0 mm WeatherDisplay:10.37 W/m2 SCT
23:36 21.4 °C 20.1 °C 1016.5 hPa NE 5 km/h   92% 0 mm WeatherDisplay:10.37 W/m2 SCT
23:41 21.3 °C 20 °C 1016.5 hPa NE 5 km/h   92% 0 mm WeatherDisplay:10.37 W/m2 SCT
23:46 21.3 °C 19.9 °C 1016.5 hPa NE 5 km/h   92% 0 mm WeatherDisplay:10.37 W/m2 SCT
23:51 21.2 °C 19.9 °C 1016.5 hPa NE 5 km/h   92% 0 mm WeatherDisplay:10.37 W/m2 SCT
23:56 21.2 °C 19.9 °C 1016.5 hPa NE 5 km/h   92% 0 mm WeatherDisplay:10.37 W/m2 SCT
Piedmont Bend
Compliments of Weather Underground - 4 mb